Orbital Elements at Epoch 2459200.5 (2020-Dec-17.0) TDB
Reference: JPL 29 (heliocentric ecliptic J2000)
Element | Value | Uncertainty (1-sigma) | Units |
e | .0606282186256203 | 3.8317e-08 | |
a | 2.353710928291156 | 7.9512e-09 | au |
q | 2.211009627549208 | 9.0314e-08 | au |
i | 3.747870551003844 | 4.189e-06 | deg |
node | 202.0210906325765 | 3.9393e-05 | deg |
peri | 10.83732446701922 | 4.7e-05 | deg |
M | 61.84529771133701 | 2.4098e-05 | deg |
tp | 2458973.914405124012 (2020-May-04.41440512) | 8.8731e-05 | TDB |
period | 1318.949332835091 3.61 | 6.6834e-06 1.83e-08 | d yr |
n | .2729445256446488 | 1.3831e-09 | deg/d |
Q | 2.496412229033104 | 8.4333e-09 | au |
|
| | Orbit Determination Parameters
Additional Information
|